Regional Weather Roundup
Issued by NWS

Home | Current Version | Previous Version | Text Only | Print | Product List | Glossary On
Versions: 1 2 3 4 5 6 7 8 9 10 11 12 13 14 15 16 17 18 19 20 21 22 23 24 25 26 27 28 29 30 31 32 33 34 35 36 37 38 39 40 41 42 43 44 45 46 47 48 49 50
709
ASUS44 KOUN 051610
RWROK

WEATHER ROUNDUP FOR OKLAHOMA
NATIONAL WEATHER SERVICE NORMAN OK
1000 AM CST MON DEC 05 2016

NOTE: "FAIR" INDICATES FEW OR NO CLOUDS BELOW 12,000 FEET WITH NO
      SIGNIFICANT WEATHER AND/OR OBSTRUCTIONS TO VISIBILITY.

OKZ001>007-009>012-014-015-017-051700-
NORTHWEST OKLAHOMA AND THE PANHANDLE

CITY           SKY/WX    TMP DP  RH WIND       PRES   REMARKS
GAGE           SUNNY     44  34  67 S23       29.74F
GUYMON         SUNNY     43  29  57 S15       29.60F
ENID/WOODRING  MOSUNNY   39  39 100 S7        29.85F WCI  34
$$

OKZ016-021>023-033>039-044-045-051700-
SOUTHWEST OKLAHOMA

CITY           SKY/WX    TMP DP  RH WIND       PRES   REMARKS
LAWTON/REGL    FOG       37  36  96 SE6       29.90R VSB<1/4 WCI  32
LAWTON/FT SILL FOG       37  37 100 S5        29.88R VSB<1/4 WCI  33
FREDERICK      FOG       39  39 100 SE8       29.86S VSB 1/4 WCI  33
CLINTON        SUNNY     43  38  82 S14       29.84S
HOBART         FOG       39  39 100 SW8       29.87R VSB 1/4 WCI  33
ALTUS AFB      FOG       37  36  95 S2        29.88R VSB 1/4
$$

OKZ018>020-024>031-051700-
CENTRAL OKLAHOMA

CITY           SKY/WX    TMP DP  RH WIND       PRES   REMARKS
OKLAHOMA CITY  FOG       40  40 100 S9        29.88R VSB 1/2 WCI  34
OKC/WILEY POST CLOUDY    42  41  96 S9        29.88R
OKC/TINKER AFB SUNNY     40  39  99 S13       29.87S WCI  32
STILLWATER     SUNNY     42  40  92 S7        29.89R
GUTHRIE        CLOUDY    41  39  93 S7        29.88R
$$

OKZ008-013-054>072-051700-
NORTHEAST OKLAHOMA

CITY           SKY/WX    TMP DP  RH WIND       PRES   REMARKS
TULSA          PTSUNNY   41  40  96 SE5       29.92R
TULSA/JONES    CLOUDY    38  37  97 S6        29.94R FOG     WCI  33
PONCA CITY     SUNNY     46  39  76 S6        29.87R
BARTLESVILLE   FOG       38  37  97 S5        29.93R VSB 1/2 WCI  34
MUSKOGEE       FOG       40  40 100 SE9       29.96R VSB 3/4 WCI  34
$$

OKZ032-040>043-046>053-073>077-051700-
SOUTH CENTRAL/SOUTHEAST OKLAHOMA

CITY           SKY/WX    TMP DP  RH WIND       PRES   REMARKS
ARDMORE/DWNTWN CLOUDY    43  41  93 SE5       29.92S
MCALESTER      CLOUDY    41  39  93 CALM      29.95R
$$





USA.gov is the U.S. government's official web portal to all federal, state and local government web resources and services.